User: anonymous   Login
Location: Unspecified
(0.0000°N, 0.0000°E)
Time: 20:45:03
(UTC+00:00)
Language:

A-11 Canister half - Orbit

View from above orbital plane
View from above orbital plane
View from above satellite
View from above satellite

Ground track
Ground track

The orbit data is extracted from the following two-line orbital elements,

1 00053U 60009E   14329.37469213 -.00000084  00000-0  00000+0 0  6042
2 00053 047.2779 042.0427 0100366 199.9989 284.1818 12.17156133421183
Epoch (UTC): 25 November 2014 08:59:33
Eccentricity: 0.0100366
inclination: 47.2779°
perigee height: 1525 km
apogee height: 1685 km
right ascension of ascending node: 42.0427°
argument of perigee: 199.9989°
revolutions per day: 12.17156133
mean anomaly at epoch: 284.1818°
orbit number at epoch: 42118

The dashed part of the orbit path shows where the satellite is in the earth's shadow,  

DLR